sat.trackr.live / text

‹ back to catalog

STARLINK-37366

NORAD 68807 · 2026-089F

PAYLOAD ACTIVE UNKNOWN

§ Identity

Operator
Country
US
Launch date
2026-04-23
Launch site
AFWTR
Launch vehicle
Mass (kg)
RCS (m²)

Purposes: comms

External: N2YO · Heavens-Above · Gunter

§ Orbital elements

Epoch: 2026-09-20T00:42:11.911392Z

Period
93.91 min
Inclination
97.2894°
Eccentricity
0.0001017
Mean motion
15.33451046 rev/d
Perigee alt
464.8 km
Apogee alt
466.2 km
Semi-major
6,843.7 km
B*
1.9199e-4
RAAN
108.7481°
Arg perigee
63.6646°
Mean anomaly
296.4701°
Rev number
2,318

§ Raw data

STARLINK-373661 68807U 26089F   26263.02930453  .00006129  00000+0  19199-3 0  99982 68807  97.2894 108.7481 0001017  63.6646 296.4701 15.33451046 23184

JSON: /api/v1/satellites/68807 · /tle

For live sub-satellite position, see the globe view (requires WebGL).

§ Visibility from observer

Set your observer location to see the next 7 days of passes ≥ 10°. The values pass through the URL so the page stays shareable.

No JS? Fill the form by hand. The geolocation button needs JavaScript.